Location: Weatherford
(35.5260°N, 98.7070°W)
Time: 01:26:39
(UTC-05:00)

OPAL - Visible Passes

Search period start: 23 March 2017 00:00
Search period end: 02 April 2017 00:00
Orbit: 743 x 795 km, 100.2° (Epoch: 21 March)

Date Brightness Start Highest point End Pass type
(mag) Time Alt. Az. Time Alt. Az. Time Alt. Az.
23 Mar 9.7 05:39:19 10° NE 05:43:18 23° E 05:47:14 10° SSE visible
24 Mar 7.4 06:41:51 10° NNE 06:46:53 79° WNW 06:51:49 10° SSW visible
25 Mar 8.6 06:06:37 10° NNE 06:11:23 43° ESE 06:16:05 10° S visible
26 Mar 10.1 05:32:16 10° NE 05:35:43 18° E 05:39:07 10° SE visible
27 Mar 7.6 06:34:21 10° NNE 06:39:22 83° ESE 06:44:19 10° SSW visible
28 Mar 9.1 05:59:17 10° NE 06:03:50 34° E 06:08:18 10° SSE visible
29 Mar 10.3 05:25:26 10° ENE 05:28:07 14° E 05:30:46 10° SE visible
30 Mar 7.9 06:26:53 10° NNE 06:31:51 65° ESE 06:36:45 10° S visible
31 Mar 9.5 05:52:03 10° NE 05:56:16 27° E 06:00:26 10° SSE visible
01 Apr 10.5 05:19:09 10° ENE 05:20:29 11° E 05:21:50 10° ESE visible
01 Apr 7.5 06:54:49 10° N 06:59:46 68° WNW 07:04:40 10° SSW visible
